Location: Killam
(52.7910°N, 111.8608°W)
Time: 01:09:39
(UTC+00:00)

A-11 Canister half - Pass Details

Date: 18 February 2026
Orbit: 1525 x 1683 km, 47.3° (Epoch: 9 March)

Event Time Altitude Azimuth Distance (km) Brightness Sun altitude
Rises 01:18:25 0° 242° (WSW) 4,704 13.4 -5.9°
Reaches altitude 10° 01:21:33 10° 238° (WSW) 3,709 12.4 -6.3°
Maximum altitude 01:30:33 56° 164° (SSE) 1,763 9.3 -7.7°
Enters shadow 01:39:32 10° 89° (E) 3,698 10.3 -9.0°
Drops below altitude 10° 01:39:32 10° 89° (E) 3,703 - -9.0°
Sets 01:42:39 0° 86° (E) 4,696 - -9.5°
